Regional Weather Roundup
Issued by NWS New Orleans/Baton Rouge, LA

Home | Current Version | Previous Version | Text Only | Print | Product List | Glossary On
Versions: 1 2 3 4 5 6 7 8 9 10 11 12 13 14 15 16 17 18 19 20 21 22 23 24 25 26 27 28 29 30 31 32 33 34 35 36 37 38 39 40 41 42 43 44 45 46 47 48 49 50
000
ASUS44 KLIX 041912
RWRLIX
NEW ORLEANS REGIONAL WEATHER ROUNDUP
NATIONAL WEATHER SERVICE NEW ORLEANS LA
200 PM CDT FRI SEP 04 2015

NOTE: "FAIR" INDICATES FEW OR NO CLOUDS BELOW 12,000 FEET WITH NO
      SIGNIFICANT WEATHER AND/OR OBSTRUCTIONS TO VISIBILITY.
      SKY/WX - SKY CONDITION AND SIGNIFICANT WEATHER.
      TMP - AIR TEMPERATURE.     DP    - DEWPOINT TEMPERATURE.
      RH  - RELATIVE HUMIDITY.   PRES  - PRESSURE.
      HI  - HEAT INDEX.          WCI   - WIND CHILL INDEX.

*  THESE STATIONS ARE NOT NWS OR FAA STATIONS AND ARE NOT UNDER
   NWS QUALITY CONTROL.

LAZ038-040-048-061>063-065>067-069-042000-
SOUTHEAST LOUISIANA

CITY           SKY/WX    TMP DP  RH WIND       PRES   REMARKS
N.O. AUDUBON     N/A     87  78  75 MISG        N/A  HX 100
N.O. INTL ARPT PTSUNNY   88  72  58 E5        29.98S THUNDER
N.O. LAKEFRONT LGT RAIN  87  73  62 SE8       29.99S
N.O. DOWNTOWN* MOCLDY    82  75  78 E3        29.99F
RESERVE*       CLOUDY    83  76  80 NW3       29.98S
SLIDELL        SUNNY     89  77  67 MISG      29.98F HX 101
BATON ROUGE    PTSUNNY   92  71  50 CALM      29.97F HX  98
BOOTHVILLE     MOSUNNY   87  76  69 SW12      29.99F HX  97
BELLE CHASSE   TSTM      80  75  84 NE7       29.98S
BOGALUSA*      NOT AVBL
GALLIANO*      PTCLDY    88  73  60 MISG      29.98S HX  96
NEW ROADS*       N/A     89  73  58 E7        29.97S HX  97
GONZALES*      CLOUDY    79  78  96 SW9       29.98S
HAMMOND*       SUNNY     95  66  38 SE5       29.98F HX  98
HOUMA*         PTSUNNY   88  79  74 SE3       29.98F HX 102
PORT FOURCHON* CLEAR     88  75  66 SW9       29.99F HX  97

$$

MSZ070-080>082-042000-
SOUTHERN MISSISSIPPI

CITY           SKY/WX    TMP DP  RH WIND       PRES   REMARKS
MCCOMB         PTSUNNY   91  69  48 NE5       29.98F HX  96
GULFPORT       PTSUNNY   88  74  63 S12       29.97F HX  96
BILOXI         SUNNY     90  74  58 SW12      29.97F HX 100
PASCAGOULA     MOSUNNY   87  74  64 S5        29.98F HX  95
STENNIS ARPT*  PTSUNNY   88  70  55 S7        29.99F

$$

COASTAL OBSERVATIONS
LAKE AND NEARSHORE STATIONS

STATION/POSITION TIME  TEMP    WIND        PRES    WAVE
                       AIR SEA DIR/SP/G            HT/PER
                 (UTC) (F)     (DEG/KT/KT) (MB)    (FT/S)
PASCAGOULA       1800   87     230/  8/ 10 1015.4
WAVELAND YACHT   1800   84 86  180/  8/ 10 1016.0
GRAND ISLE       1800   86 84  200/  6/ 11 1016.0
SOUTHWEST PASS   1800   86 86  200/  4/  6 1016.6
NEW CANAL        1800   84 85   50/  4/  5 1014.8
SHELL BEACH      1800   85 85   20/  6/  8 1015.3

OFFSHORE STATIONS

STATION/POSITION TIME  TEMP    WIND        PRES    WAVE
                       AIR SEA DIR/SP/G            HT/PER
                 (UTC) (F)     (DEG/KT/KT) (MB)    (FT/S)
64 S DAUPHIN ISL 1850   81 85  100/  4/  6 1016.3    1/ 6

$$




USA.gov is the U.S. government's official web portal to all federal, state and local government web resources and services.